Waarnemingen

Advertentie
Mijn weer
P11-B, Nederland (6203): temperatuur & dauwpunt: 19.09.2017 06:00:00 - 25.09.2017 06:00:00 (CEST)P11-B, Nederland (6203): windsnelheid & windstoten: 19.09.2017 06:00:00 - 25.09.2017 06:00:00 (CEST)P11-B, Nederland (6203): windrichting: 19.09.2017 06:00:00 - 25.09.2017 06:00:00 (CEST)P11-B, Nederland (6203): luchtdruk: 19.09.2017 06:00:00 - 25.09.2017 06:00:00 (CEST)P11-B, Nederland (6203): zicht: 19.09.2017 06:00:00 - 25.09.2017 06:00:00 (CEST)
Datum & Tijd tt [°C] td [°C] ff [km/u] ff [kn] fx [km/u] fx [kn] dd ppp [hPa] vv [km]
25.09.2017 06:00:00 15,9 13,5 29 16 29 16 O 1020,8 10
25.09.2017 05:00:00 16,1 13,7 29 16 29 16 O 1020,8 10
25.09.2017 04:00:00 16,3 12,9 29 16 32 18 O 1021,2 10
25.09.2017 03:00:00 16,6 13,0 31 17 32 18 O 1021,3 10
25.09.2017 02:00:00 16,9 13,7 31 17 32 18 O 1021,7 10
25.09.2017 01:00:00 17,0 13,5 31 17 32 18 O 1022,1 9
25.09.2017 00:00:00 17,1 13,7 29 16 29 16 O 1022,1 9
24.09.2017 23:00:00 17,3 13,9 26 14 32 18 O 1022,2 9
24.09.2017 22:00:00 17,6 14,2 28 15 29 16 O 1021,9 8
24.09.2017 21:00:00 17,8 14,3 28 15 29 16 O 1021,9 9
24.09.2017 20:00:00 17,5 14,7 24 13 25 14 O 1021,9 10
24.09.2017 19:00:00 17,5 14,3 26 14 25 14 O 1021,8 10
24.09.2017 18:00:00 17,2 14,3 29 16 29 16 ONO 1021,6 9
24.09.2017 17:00:00 16,7 13,9 28 15 29 16 ONO 1021,9 9
24.09.2017 16:00:00 16,5 13,7 24 13 25 14 ONO 1022,2 10
24.09.2017 15:00:00 16,1 13,0 22 12 22 12 O 1022,6 9
24.09.2017 14:00:00 16,0 12,9 26 14 29 16 O 1022,7 10
24.09.2017 13:00:00 15,8 12,1 29 16 29 16 O 1022,3 10
24.09.2017 12:00:00 15,8 12,3 24 13 25 14 OZO 1022,8 10
24.09.2017 11:00:00 15,8 12,6 26 14 25 14 OZO 1022,9 10
24.09.2017 10:00:00 15,7 11,5 22 12 25 14 OZO 1022,8 10
24.09.2017 09:00:00 15,7 11,8 26 14 29 16 O 1022,5 10
24.09.2017 08:00:00 15,3 11,5 26 14 25 14 O 1022,2 10
24.09.2017 07:00:00 15,3 11,1 24 13 25 14 O 1022,1 10
24.09.2017 06:00:00 15,5 10,8 22 12 25 14 O 1022,0 10
24.09.2017 05:00:00 15,5 10,8 22 12 25 14 O 1022,1 10
24.09.2017 04:00:00 15,6 11,3 22 12 25 14 O 1022,3 10
24.09.2017 03:00:00 15,8 10,1 22 12 25 14 OZO 1022,6 10
24.09.2017 02:00:00 15,8 10,7 24 13 25 14 O 1022,5 10
24.09.2017 01:00:00 15,8 11,0 24 13 29 16 O 1022,9 10
24.09.2017 00:00:00 16,2 11,4 24 13 25 14 OZO 1022,9 10
23.09.2017 23:00:00 16,1 10,5 22 12 22 12 ONO 1023,1 10
23.09.2017 22:00:00 15,9 10,7 16 9 18 10 O 1023,3 10
23.09.2017 21:00:00 15,9 10,5 18 10 18 10 O 1023,3 10
23.09.2017 20:00:00 15,7 10,0 15 8 14 8 O 1023,1 10
23.09.2017 19:00:00 15,6 9,9 11 6 14 8 O 1023,1 10
23.09.2017 18:00:00 15,6 11,0 8 4 14 8 OZO 1023,3 10
23.09.2017 17:00:00 15,7 12,0 13 7 14 8 ZZO 1023,2 10
23.09.2017 16:00:00 15,8 11,2 11 6 14 8 ZO 1023,7 10
23.09.2017 15:00:00 16,1 11,1 15 8 18 10 Z 1024,1 10
23.09.2017 14:00:00 16,3 11,4 11 6 14 8 ZZW 1024,2 10
23.09.2017 13:00:00 16,1 10,3 13 7 18 10 ZZW 1024,4 10
23.09.2017 12:00:00 15,9 10,4 15 8 18 10 ZZW 1024,2 10
23.09.2017 11:00:00 16,0 11,0 9 5 14 8 - 1024,2 10
23.09.2017 10:00:00 15,9 10,7 11 6 14 8 ZZW 1024,0 10
23.09.2017 09:00:00 15,8 11,1 11 6 14 8 ZZW 1023,7 10
23.09.2017 08:00:00 15,8 11,4 11 6 11 6 ZW 1023,7 10
23.09.2017 07:00:00 16,0 11,6 9 5 14 8 Z 1023,2 10
23.09.2017 06:00:00 16,1 10,1 8 4 14 8 Z 1023,0 10
23.09.2017 05:00:00 16,1 11,0 13 7 18 10 - 1023,1 10
23.09.2017 04:00:00 15,8 11,0 16 9 22 12 ZZW 1023,3 10
23.09.2017 03:00:00 15,7 11,0 18 10 22 12 ZZW 1023,4 10
23.09.2017 02:00:00 15,6 10,6 16 9 18 10 ZZW 1023,3 10
23.09.2017 01:00:00 15,6 10,2 16 9 18 10 ZZW 1023,1 10
23.09.2017 00:00:00 15,5 9,6 15 8 18 10 ZZW 1023,1 10
22.09.2017 23:00:00 15,3 8,0 13 7 14 8 ZZW 1023,2 10
22.09.2017 22:00:00 15,3 8,4 11 6 14 8 ZW 1022,9 10
22.09.2017 21:00:00 15,2 8,4 8 4 11 6 ZW 1022,8 10
22.09.2017 20:00:00 15,3 8,5 11 6 18 10 WZW 1022,4 10
22.09.2017 19:00:00 15,3 8,0 13 7 18 10 - 1022,1 10
22.09.2017 18:00:00 15,6 8,6 9 5 14 8 W 1021,7 10
22.09.2017 17:00:00 15,8 9,3 11 6 18 10 W 1021,5 10
22.09.2017 16:00:00 16,0 10,7 11 6 18 10 WNW 1021,5 10
22.09.2017 15:00:00 15,9 10,5 13 7 18 10 NW 1021,3 10
22.09.2017 14:00:00 15,5 10,9 13 7 18 10 NW 1021,2 10
22.09.2017 13:00:00 15,8 11,2 15 8 18 10 NW 1021,0 10
22.09.2017 12:00:00 15,8 11,2 18 10 22 12 NW 1020,8 10
22.09.2017 11:00:00 15,6 11,4 18 10 22 12 NW 1020,4 10
22.09.2017 10:00:00 15,6 11,8 22 12 25 14 NW 1020,0 10
22.09.2017 09:00:00 15,7 12,2 22 12 25 14 NW 1019,6 10
22.09.2017 08:00:00 15,7 12,7 22 12 25 14 NNW 1019,1 10
22.09.2017 07:00:00 15,8 13,3 21 11 22 12 NNW 1018,6 10
22.09.2017 06:00:00 16,2 14,0 15 8 18 10 NW 1018,3 10
22.09.2017 05:00:00 16,5 14,1 11 6 18 10 W 1018,2 10
22.09.2017 04:00:00 16,5 14,3 16 9 22 12 W 1018,1 10
22.09.2017 03:00:00 16,3 14,0 21 11 32 18 ZW 1018,4 10
22.09.2017 02:00:00 17,2 13,8 28 15 29 16 Z 1017,8 10
22.09.2017 01:00:00 17,4 13,6 28 15 32 18 Z 1017,7 10
22.09.2017 00:00:00 17,5 13,1 31 17 32 18 Z 1017,6 10
21.09.2017 23:00:00 17,6 13,1 31 17 32 18 ZZO 1017,5 10
21.09.2017 22:00:00 17,6 13,2 34 18 32 18 ZZO 1017,5 10
21.09.2017 21:00:00 17,6 13,3 34 18 32 18 ZZO 1017,5 10
21.09.2017 20:00:00 17,5 13,3 34 18 32 18 ZZO 1017,1 10
21.09.2017 19:00:00 17,4 13,0 35 19 36 19 Z 1016,8 10
21.09.2017 18:00:00 17,4 13,0 37 20 40 21 Z 1016,7 10
21.09.2017 17:00:00 17,2 12,9 39 21 - - Z 1016,7 10
21.09.2017 16:00:00 16,9 12,0 41 22 43 23 Z 1016,4 10
21.09.2017 15:00:00 16,4 11,7 42 23 54 29 Z 1016,5 10
21.09.2017 14:00:00 16,3 11,9 42 23 43 23 Z 1016,7 10
21.09.2017 13:00:00 16,3 12,4 42 23 43 23 Z 1017,0 10
21.09.2017 12:00:00 15,8 11,9 41 22 40 21 Z 1017,2 10
21.09.2017 11:00:00 15,8 12,3 41 22 43 23 Z 1017,2 10
21.09.2017 10:00:00 15,5 13,0 41 22 40 21 Z 1017,2 10
21.09.2017 09:00:00 15,6 13,4 39 21 40 21 Z 1017,1 10
21.09.2017 08:00:00 15,5 12,9 37 20 36 19 Z 1016,9 10
21.09.2017 07:00:00 15,7 12,8 34 18 36 19 Z 1016,8 10
21.09.2017 06:00:00 15,8 12,3 35 19 40 21 - 1017,0 10
21.09.2017 05:00:00 16,0 12,5 35 19 40 21 - 1017,1 10
21.09.2017 04:00:00 16,1 13,0 35 19 40 21 - 1017,3 10
21.09.2017 03:00:00 16,4 12,4 37 20 40 21 - 1017,5 10
21.09.2017 02:00:00 16,3 12,8 37 20 40 21 ZZW 1017,7 10
21.09.2017 01:00:00 16,5 12,5 41 22 40 21 ZZW 1017,6 10
21.09.2017 00:00:00 16,7 12,1 39 21 40 21 ZZW 1017,9 10
20.09.2017 23:00:00 16,6 12,8 37 20 40 21 ZW 1017,8 10
20.09.2017 22:00:00 16,5 12,7 39 21 40 21 ZW 1017,8 10
20.09.2017 21:00:00 16,6 12,6 39 21 40 21 ZZW 1018,0 10
20.09.2017 20:00:00 16,1 13,0 41 22 43 23 ZW 1017,9 10
20.09.2017 19:00:00 16,4 12,7 41 22 40 21 ZZW 1017,5 10
20.09.2017 18:00:00 16,3 12,5 37 20 40 21 ZZW 1017,9 10
20.09.2017 17:00:00 16,2 11,4 37 20 36 19 ZW 1018,2 10
20.09.2017 16:00:00 15,9 12,4 31 17 32 18 ZW 1018,6 10
20.09.2017 15:00:00 15,8 12,0 28 15 29 16 ZW 1018,9 10
20.09.2017 14:00:00 15,8 11,1 26 14 29 16 ZW 1019,0 10
20.09.2017 13:00:00 15,5 10,7 26 14 25 14 ZW 1019,3 10
20.09.2017 12:00:00 15,7 10,9 24 13 29 16 WZW 1019,4 10
20.09.2017 11:00:00 15,4 10,7 28 15 29 16 WZW 1019,3 10
20.09.2017 10:00:00 15,3 9,0 22 12 25 14 - 1019,3 10
20.09.2017 09:00:00 14,9 8,6 21 11 25 14 W 1019,2 10
20.09.2017 08:00:00 14,8 8,8 28 15 29 16 - 1019,3 10
20.09.2017 07:00:00 14,4 8,2 26 14 29 16 WZW 1019,2 10
20.09.2017 06:00:00 14,6 7,9 28 15 32 18 W 1019,2 10
20.09.2017 05:00:00 14,8 9,4 28 15 29 16 W 1019,2 10
20.09.2017 04:00:00 14,8 9,1 24 13 29 16 - 1019,6 10
20.09.2017 03:00:00 14,7 9,8 18 10 22 12 WZW 1020,0 10
20.09.2017 02:00:00 14,9 9,5 13 7 14 8 WZW 1020,3 10
20.09.2017 01:00:00 14,8 9,6 11 6 14 8 - 1020,6 10
20.09.2017 00:00:00 14,8 9,6 5 3 14 8 W 1020,8 10
19.09.2017 23:00:00 15,0 9,2 11 6 18 10 NW 1020,9 10
19.09.2017 22:00:00 15,1 8,8 15 8 22 12 NW 1021,0 10
19.09.2017 21:00:00 15,2 9,0 15 8 22 12 WNW 1020,9 10
19.09.2017 20:00:00 15,0 10,0 21 11 29 16 NW 1020,5 10
19.09.2017 19:00:00 15,2 10,2 22 12 29 16 NW 1020,3 10
19.09.2017 18:00:00 15,6 10,3 16 9 22 12 WNW 1020,0 10
19.09.2017 17:00:00 15,5 9,9 15 8 25 14 WNW 1020,1 10
19.09.2017 16:00:00 15,6 10,8 18 10 29 16 NW 1020,0 10
19.09.2017 15:00:00 15,8 10,7 18 10 25 14 NNW 1019,9 10
19.09.2017 14:00:00 15,7 10,3 22 12 29 16 NNW 1019,8 10
19.09.2017 13:00:00 15,8 9,9 16 9 22 12 NNW 1019,3 10
19.09.2017 12:00:00 15,5 9,4 11 6 25 14 - 1019,0 10
19.09.2017 11:00:00 15,4 10,7 15 8 29 16 - 1018,7 10
19.09.2017 10:00:00 15,5 9,7 13 7 22 12 - 1018,2 10
19.09.2017 09:00:00 15,3 9,6 16 9 29 16 NNW 1017,5 10
19.09.2017 08:00:00 15,2 10,5 15 8 29 16 - 1017,1 10
19.09.2017 07:00:00 15,3 9,5 15 8 22 12 NNW 1016,6 10
19.09.2017 06:00:00 15,2 9,5 15 8 25 14 N 1016,2 10

tt = temperatuur
td = dauwpunt
ff = windsnelheid
fx = windstoten
dd = windrichting
ppp = luchtdruk
vv = zicht

Weerstations in de omgeving